Kahului, HI

1:28 AM HST on December 13, 2017 (GMT -1000)
Kahului

Weather History for PHOG - August, 2014

Change the Weather History Date:

Monday, August 4, 2014

  Actual Average Record
Temperature  
Mean Temperature 84 °F 80 °F  
Max Temperature 91 °F 88 °F 93 °F (1978)
Min Temperature 76 °F 72 °F 63 °F (1972)
Degree Days  
Heating Degree Days 0 0  
Month to date heating degree days 0 0  
Since 1 June heating degree days 0 0  
Since 1 July heating degree days 0 0  
Cooling Degree Days 19 15  
Month to date cooling degree days 68 60  
Year to date cooling degree days 2462 2146  
Since 1 June cooling degree days 966 887  
Growing Degree Days 33 (Base 50)    
Moisture  
Dew Point 67 °F    
Average Humidity 60    
Maximum Humidity 76    
Minimum Humidity 44    
Precipitation  
Precipitation 0.00 in 0.01 in 0.29 in (1981)
Month to date precipitation 0.00 0.07  
Year to date precipitation 15.18 10.27  
Snow  
Snow 0.00 in - - ()
Month to date snowfall 0.0  
Since 1 June snowfall 0.0  
Since 1 July snowfall 0.0  
Snow Depth 0.00 in    
Sea Level Pressure  
Sea Level Pressure 29.99 in    
Wind  
Wind Speed 19 mph (ENE)    
Max Wind Speed 28 mph    
Max Gust Speed 37 mph    
Visibility 10 miles    
Events      
T = Trace of Precipitation, MM = Missing Value Source: NWS Daily Summary

Daily Weather History Graph

Daily Weather History Graph

Search for Another Location

Airport or City:

Trip Planner

Search our weather history database for the weather conditions in past years. The results will help you decide how hot, cold, wet, or windy it might be!

Date:

Astronomy

Aug. 04, 2014 Rise Set
Actual Time 6:01 AM HST 7:02 PM HST
Civil Twilight 5:37 AM HST 7:25 PM HST
Nautical Twilight 5:09 AM HST 7:53 PM HST
Astronomical Twilight 4:41 AM HST 8:21 PM HST
Moon 1:27 PM HST (8/4) 12:09 AM HST (8/4)
Length of Visible Light 13h 48m
Length of Day
13h 01m
First Quarter, 59% of the Moon is Illuminated
Aug 4
First Quarter
Aug 10
Full
Aug 17
Last Quarter
Aug 25
New
Sep 2
First Quarter

Hourly Weather History & Observations

Time (HST) Temp. Heat Index Dew Point Humidity Pressure Visibility Wind Dir Wind Speed Gust Speed Precip Events Conditions
12:54 AM 78.1 °F - 68.0 °F 71% 30.01 in 10.0 mi ENE 15.0 mph 23.0 mph N/A   Clear
1:54 AM 77.0 °F - 69.1 °F 76% 30.00 in 10.0 mi NE 17.3 mph 23.0 mph N/A   Clear
2:54 AM 77.0 °F - 70.0 °F 79% 29.98 in 10.0 mi NE 16.1 mph - N/A   Clear
3:54 AM 77.0 °F - 70.0 °F 79% 29.98 in 10.0 mi NE 16.1 mph 24.2 mph N/A   Partly Cloudy
4:54 AM 77.0 °F - 70.0 °F 79% 29.99 in 10.0 mi NE 12.7 mph 23.0 mph N/A   Clear
5:54 AM 77.0 °F - 69.1 °F 76% 30.00 in 10.0 mi ENE 15.0 mph 20.7 mph N/A   Partly Cloudy
6:54 AM 79.0 °F - 66.9 °F 66% 30.02 in 10.0 mi NE 13.8 mph - N/A   Scattered Clouds
7:54 AM 82.9 °F 84.6 °F 64.9 °F 54% 30.03 in 10.0 mi NE 13.8 mph 21.9 mph N/A   Partly Cloudy
8:54 AM 86.0 °F 90.7 °F 70.0 °F 59% 30.02 in 10.0 mi NE 23.0 mph - N/A   Partly Cloudy
9:54 AM 84.0 °F 86.5 °F 66.9 °F 56% 30.02 in 10.0 mi ENE 25.3 mph 31.1 mph N/A   Scattered Clouds
10:54 AM 88.0 °F 89.6 °F 64.9 °F 46% 30.01 in 10.0 mi ENE 23.0 mph 32.2 mph N/A   Scattered Clouds
11:54 AM 90.0 °F 91.3 °F 64.0 °F 42% 30.00 in 10.0 mi ENE 21.9 mph 29.9 mph N/A   Scattered Clouds
12:54 PM 90.0 °F 91.7 °F 64.9 °F 43% 29.99 in 10.0 mi East 23.0 mph 34.5 mph N/A   Scattered Clouds
1:54 PM 90.0 °F 92.8 °F 66.9 °F 46% 29.96 in 10.0 mi ENE 26.5 mph 33.4 mph N/A   Scattered Clouds
2:54 PM 89.1 °F 90.3 °F 64.0 °F 43% 29.94 in 10.0 mi ENE 21.9 mph 32.2 mph N/A   Scattered Clouds
3:54 PM 88.0 °F 90.3 °F 66.0 °F 48% 29.93 in 10.0 mi East 24.2 mph 34.5 mph N/A   Scattered Clouds
4:54 PM 86.0 °F 88.8 °F 66.9 °F 53% 29.93 in 10.0 mi ENE 20.7 mph 34.5 mph N/A   Scattered Clouds
5:54 PM 82.9 °F 85.4 °F 66.9 °F 58% 29.95 in 10.0 mi ENE 20.7 mph 32.2 mph N/A   Scattered Clouds
6:54 PM 80.1 °F 82.3 °F 66.9 °F 64% 29.97 in 10.0 mi ENE 18.4 mph 27.6 mph N/A   Scattered Clouds
7:54 PM 79.0 °F - 68.0 °F 69% 30.00 in 10.0 mi ENE 19.6 mph 27.6 mph N/A   Partly Cloudy
8:54 PM 78.1 °F - 66.9 °F 68% 30.01 in 10.0 mi ENE 17.3 mph 27.6 mph N/A   Partly Cloudy
9:54 PM 78.1 °F - 66.0 °F 66% 30.03 in 10.0 mi ENE 16.1 mph 24.2 mph N/A   Partly Cloudy
10:54 PM 78.1 °F - 66.0 °F 66% 30.04 in 10.0 mi NE 19.6 mph 24.2 mph N/A   Partly Cloudy
11:54 PM 77.0 °F - 68.0 °F 74% 30.05 in 10.0 mi ENE 13.8 mph 23.0 mph N/A   Partly Cloudy